Hourly Data Report for June 14, 2018

LONDON CS
ONTARIO
Current Station Operator: ECCC - MSC

43°02'00.000" N
81°09'00.000" W
278.00 m
6144478
71622
WSN

Download Data

Hourly Data (June 2018)
Hourly Data Report for June 14, 2018
TIME Temp Definition
°C
Dew Point Definition
°C
Rel Hum Definition
%
Wind Dir Definition
10's deg

Wind Spd Definition
km/h
Visibility Definition
km
Stn Press Definition
kPa
Hmdx Definition


Wind Chill Definition


Weather Definition


00:00 13.9 7.6 65 LegendMM LegendMM   98.08     LegendNANA
01:00 14.6 7.9 64 LegendMM LegendMM   98.09     LegendNANA
02:00 14.9 7.6 61 LegendMM LegendMM   98.08     LegendNANA
03:00 14.7 7.1 60 LegendMM LegendMM   98.07     LegendNANA
04:00 14.9 6.7 58 LegendMM LegendMM   98.11     LegendNANA
05:00 14.2 7.0 62 LegendMM LegendMM   98.12     LegendNANA
06:00 16.3 8.5 60 LegendMM LegendMM   98.18     LegendNANA
07:00 18.4 10.1 58 LegendMM LegendMM   98.22     LegendNANA
08:00 19.5 9.8 53 LegendMM LegendMM   98.25     LegendNANA
09:00 21.1 9.8 48 LegendMM LegendMM   98.29     LegendNANA
10:00 21.6 8.7 44 LegendMM LegendMM   98.27     LegendNANA
11:00 23.6 8.1 37 LegendMM LegendMM   98.25     LegendNANA
12:00 24.4 9.1 38 LegendMM LegendMM   98.30 25   LegendNANA
13:00 23.8 8.1 37 LegendMM LegendMM   98.34     LegendNANA
14:00 23.7 8.5 38 LegendMM LegendMM   98.33     LegendNANA
15:00 23.7 8.4 38 LegendMM LegendMM   98.37     LegendNANA
16:00 23.9 8.4 37 LegendMM LegendMM   98.33     LegendNANA
17:00 23.4 5.7 32 LegendMM LegendMM   98.34     LegendNANA
18:00 23.0 5.5 32 LegendMM LegendMM   98.34     LegendNANA
19:00 21.9 5.9 35 LegendMM LegendMM   98.33     LegendNANA
20:00 19.8 6.7 43 LegendMM LegendMM   98.30     LegendNANA
21:00 17.3 6.9 50 LegendMM LegendMM   98.33     LegendNANA
22:00 16.9 7.4 53 LegendMM LegendMM   98.35     LegendNANA
23:00 15.0 7.7 62 LegendMM LegendMM   98.41     LegendNANA

Notes on Data Quality.

Legend

  • E = Estimated
  • M = Missing
  • NA = Not Available*
  • [empty] = Indicates an unobserved value
Date modified: